User: anonymous   Login
Location: Grandview
(34.8900°N, 117.1058°W)
Time: 10:36:28
(UTC-07:00)
Language:

OTV 5 (USA 277) - Orbit

View from above orbital plane
View from above orbital plane
View from above satellite
View from above satellite

Ground track
Ground track

The orbit data is extracted from the following two-line orbital elements,

1 42932U 17052A   18169.10445291 0.00000000  00000-0  00000-0 0    09
2 42932  54.5145 174.2190 0004791  20.7084 339.2915 15.84802887    05
Epoch (UTC): 18 June 2018 02:30:24
Eccentricity: 0.0004791
inclination: 54.5145°
perigee height: 313 km
apogee height: 320 km
right ascension of ascending node: 174.2190°
argument of perigee: 20.7084°
revolutions per day: 15.84802887
mean anomaly at epoch: 339.2915°
orbit number at epoch: 0

The dashed part of the orbit path shows where the satellite is in the earth's shadow,  

DLR